Wind_Speed
22 23 24 25 26 27 28 28 28 28 28 27 26 25 24 23 22 21 20 20 18 17 16 15 15 14 14 13 13 13 13 13 13 13 13 13 13 13 14 13 13 13 12 12 12 13 13 13 13 15 16 16 18 19 20 20 21 21 21 21 21 22 22 23 24 24 22 20 18 18 18 17 15 14 13 13 14 15 17 19 21 22 23 25 27
21 22 24 25 25 26 27 28 28 29 29 29 28 28 27 26 25 24 23 22 21 20 19 18 18 17 16 16 15 15 15 14 14 14 14 14 14 14 15 15 15 15 14 14 13 13 13 13 13 14 15 15 16 17 18 19 20 21 21 21 21 21 21 22 22 23 23 21 19 17 15 14 14 13 14 14 15 16 17 19 21 22 25 27 27
20 22 23 24 24 25 25 26 27 28 29 30 29 29 29 28 28 27 26 25 24 23 22 21 21 20 19 18 18 17 16 16 16 15 15 15 15 15 16 16 16 16 16 16 15 15 14 14 13 14 14 15 15 16 17 18 19 20 20 21 21 21 21 21 21 21 22 22 21 18 15 13 12 11 12 14 15 17 18 21 22 23 26 27 28
20 21 23 23 24 25 25 26 26 26 27 28 28 28 29 29 29 28 27 26 26 25 24 23 23 23 21 20 20 19 19 18 18 17 16 16 17 17 17 17 18 18 18 18 18 17 17 16 15 15 15 15 15 15 16 17 18 19 20 20 21 21 21 20 20 20 21 21 21 20 18 16 13 12 11 12 15 17 18 19 21 22 24 26 26
20 21 22 23 24 25 26 27 27 26 26 26 26 27 28 28 28 28 27 27 27 26 26 26 25 24 23 22 22 21 21 21 20 19 18 17 18 19 19 19 19 19 19 20 20 20 19 18 18 17 16 16 16 16 16 16 17 18 19 20 20 20 21 21 20 20 20 20 20 20 20 18 17 15 14 14 16 18 18 19 21 21 23 25 26
20 20 21 23 24 26 27 28 28 27 26 25 25 25 26 27 27 27 27 27 27 27 27 27 26 26 25 24 24 24 23 22 22 21 20 19 19 20 21 20 20 20 21 21 21 22 21 21 20 19 19 18 18 18 18 17 17 18 18 19 19 20 20 20 20 20 20 20 20 20 21 20 19 18 17 18 19 20 20 21 22 22 22 24 27
21 21 21 23 25 26 28 28 28 28 26 25 24 25 26 26 26 26 27 27 28 28 28 28 28 27 27 26 26 25 25 24 23 23 22 21 21 22 22 22 22 22 22 22 22 23 23 23 22 22 21 20 20 20 20 20 19 19 19 19 19 19 20 20 20 20 20 20 20 21 22 22 22 21 19 20 21 22 22 21 21 22 21 22 25
24 22 23 24 25 26 28 28 28 28 27 26 25 26 27 27 27 26 26 27 27 27 28 28 28 28 28 28 27 27 27 26 25 24 24 23 23 24 24 24 24 24 24 24 24 24 24 24 24 24 23 23 22 22 22 23 22 21 20 20 19 19 19 20 20 20 20 21 21 22 22 23 24 24 22 22 22 23 24 23 23 23 24 25 26
27 26 26 26 26 25 26 28 28 29 29 28 27 27 28 29 29 28 27 27 27 27 28 28 28 28 28 28 28 28 28 28 27 26 25 25 26 26 25 25 25 26 26 25 25 25 25 25 25 25 26 25 25 24 24 25 24 24 23 22 22 21 20 20 20 20 20 21 22 23 24 25 25 26 25 25 24 25 26 26 26 27 27 28 28
31 29 29 28 27 26 26 27 28 29 30 30 29 29 29 30 30 30 30 29 28 28 29 29 29 29 29 29 29 30 30 29 29 28 28 28 28 28 27 27 27 28 28 27 27 27 27 27 27 27 27 27 27 26 26 26 27 26 25 24 24 23 22 22 21 21 21 21 22 23 25 27 27 27 27 27 26 27 28 29 29 29 29 29 29
35 33 32 30 29 28 28 28 28 28 29 30 31 31 30 30 31 32 32 31 30 30 30 31 31 31 30 31 31 32 32 32 31 30 30 30 30 30 30 29 29 29 30 29 29 29 29 29 28 28 28 28 29 28 28 28 28 28 28 27 26 26 25 24 23 22 22 23 23 24 26 27 28 28 28 27 26 26 28 29 30 30 30 30 31
39 37 35 33 32 31 31 30 29 29 29 30 31 31 31 31 32 33 34 34 33 33 33 33 33 33 32 33 33 34 34 34 33 33 32 33 33 33 32 31 31 31 31 31 31 30 30 30 30 30 30 30 30 30 30 30 30 30 29 29 28 28 27 27 25 24 24 25 25 26 27 29 30 30 29 28 27 27 28 29 30 30 31 32 34
40 39 37 36 35 34 33 32 31 30 30 30 31 31 32 33 33 34 34 34 34 35 35 35 35 35 35 35 35 35 36 36 35 35 35 35 35 35 34 34 33 33 33 32 32 32 32 32 32 32 31 31 31 31 31 32 32 31 31 31 30 30 30 29 28 27 26 27 27 28 29 31 33 33 32 30 29 29 29 30 31 30 30 32 34
41 40 39 38 38 36 35 34 34 33 32 32 32 32 33 34 34 34 34 33 34 35 36 36 36 36 36 36 36 37 37 38 37 36 37 37 37 37 37 36 36 35 34 34 34 34 34 34 34 34 33 33 33 33 33 33 34 33 33 32 32 32 32 31 30 29 29 29 30 31 31 32 35 37 35 32 31 32 31 31 31 31 31 33 34
45 43 42 42 41 39 37 36 35 34 34 33 33 33 33 34 34 35 35 34 34 35 35 36 37 37 37 37 38 38 39 39 39 38 38 38 39 39 39 39 38 38 37 36 35 36 36 36 36 36 36 35 35 35 35 35 36 35 35 34 34 34 34 33 32 32 31 31 32 33 33 34 37 40 38 35 34 35 34 33 33 33 34 35 35
49 47 45 45 43 41 40 38 37 36 36 35 35 34 33 34 34 35 35 35 35 35 35 36 37 37 37 38 38 39 41 41 41 40 40 40 40 41 41 41 41 40 39 38 37 37 38 39 38 38 38 38 37 37 37 37 38 38 37 37 36 36 36 36 35 35 34 34 34 35 35 36 38 41 41 38 36 36 37 36 35 35 35 36 35
53 52 49 47 46 44 42 40 39 38 38 37 36 35 34 34 35 35 36 36 36 36 36 37 37 37 38 38 39 39 40 41 42 41 41 42 43 43 44 43 43 42 41 39 39 40 40 40 40 40 40 39 39 39 39 39 40 40 40 39 39 39 38 38 38 38 38 37 36 37 37 38 40 43 43 40 39 39 39 37 36 36 36 36 37
54 54 52 50 48 46 44 42 41 40 40 39 38 36 35 35 36 36 36 37 37 38 37 37 38 38 39 40 40 41 40 41 41 40 39 41 43 45 45 45 45 44 42 41 41 42 42 42 42 42 41 41 41 41 41 41 41 41 41 41 41 41 41 40 40 41 40 39 39 39 39 39 41 43 44 43 41 39 37 36 36 37 36 37 39
56 56 54 51 49 47 45 44 43 42 41 40 39 38 37 37 37 37 37 37 38 38 38 38 39 40 40 40 41 41 42 42 42 42 41 41 43 44 46 46 46 44 42 42 43 43 43 43 43 43 42 42 42 43 43 43 43 42 42 43 43 43 42 42 42 42 42 41 40 41 41 40 40 41 42 43 41 38 36 36 38 38 37 39 41
58 56 54 51 49 48 47 46 45 44 43 42 40 39 39 38 38 38 37 37 38 38 39 39 39 40 40 40 41 41 42 43 44 44 43 43 43 44 44 45 44 42 40 40 42 43 44 43 43 42 42 42 43 44 44 43 43 43 43 43 44 44 44 43 43 43 42 41 41 42 42 42 41 39 38 39 39 39 38 38 39 39 39 41 42
56 54 52 51 50 50 50 49 47 45 45 44 42 41 41 40 39 38 37 37 38 39 39 40 40 40 40 40 41 42 43 44 44 44 44 44 44 44 45 45 43 40 38 37 39 40 41 40 41 41 41 42 43 43 43 43 43 43 43 43 44 44 44 44 44 44 42 41 39 39 40 41 41 40 38 38 38 38 39 39 39 38 39 41 43
58 55 52 51 52 52 51 50 49 47 46 46 44 43 42 41 39 38 38 37 38 39 39 40 40 40 40 41 41 42 43 44 45 46 45 45 45 45 45 46 44 42 39 37 37 37 38 38 39 39 39 39 39 40 40 41 42 42 42 42 43 43 43 43 44 43 42 40 38 36 35 36 37 39 39 39 38 37 37 38 37 36 38 42 45
59 57 54 52 53 54 53 52 50 49 48 48 46 44 42 41 39 38 38 38 39 40 40 40 40 41 41 42 42 42 43 44 45 47 46 45 45 45 45 46 45 44 41 40 39 38 38 38 38 37 36 35 35 36 38 39 39 39 39 39 40 40 41 41 42 42 42 40 38 35 33 33 34 36 37 37 37 35 35 36 36 34 35 40 43
57 55 54 53 54 55 55 54 52 50 49 48 47 44 42 40 39 39 39 39 40 40 40 41 41 42 42 43 42 42 43 44 45 47 47 46 46 46 46 47 47 46 44 42 42 41 41 40 39 38 37 36 35 36 37 37 37 37 37 37 38 38 39 40 41 41 41 40 39 37 35 34 33 33 33 35 35 35 36 37 36 34 35 38 42
61 58 56 56 56 57 56 55 53 51 50 49 47 44 42 40 39 39 40 40 40 41 41 41 42 42 43 43 43 43 43 44 45 46 47 47 47 48 49 49 49 48 47 45 44 44 43 42 41 40 40 39 38 37 37 36 37 36 36 36 37 38 39 40 40 41 41 41 40 38 37 37 36 35 35 37 37 38 39 39 38 38 40 41 44
65 63 60 58 58 58 57 56 55 52 51 50 47 44 42 40 40 41 41 41 41 42 43 43 43 44 45 45 45 44 44 44 45 46 47 48 48 49 50 51 51 50 50 48 47 46 45 44 43 43 42 41 40 39 38 37 37 38 38 38 38 39 39 40 41 41 41 41 40 39 38 39 40 41 41 43 43 44 44 43 42 44 45 46 47
66 64 62 61 60 59 58 57 55 53 52 50 47 44 43 42 41 42 43 43 43 44 44 45 45 46 46 46 46 45 45 45 45 46 47 48 49 50 51 51 51 51 51 51 50 48 47 47 46 46 45 45 44 43 41 39 39 40 40 40 40 40 41 41 41 41 40 40 41 41 41 43 45 46 47 48 48 49 48 46 45 47 48 48 48
66 65 63 62 61 60 58 57 55 53 52 50 47 45 45 44 44 45 45 45 45 45 46 46 46 47 47 47 46 46 46 46 46 47 48 48 49 50 50 50 50 51 51 51 51 50 50 49 49 49 48 47 46 45 44 42 41 42 42 42 42 42 43 43 42 42 42 42 42 43 45 48 49 50 50 50 50 50 48 45 45 49 51 49 48
66 65 63 62 62 61 59 57 55 53 52 50 48 47 47 47 47 48 48 47 46 46 47 47 47 47 47 47 47 46 47 47 47 47 48 48 48 48 49 49 49 50 51 51 51 52 52 51 51 50 49 48 48 47 46 45 45 44 44 44 44 44 45 45 44 44 44 45 45 47 49 52 53 53 53 52 51 50 46 45 49 54 53 49 47
66 65 63 62 62 61 59 57 55 53 52 51 50 50 50 49 49 49 48 47 47 47 48 48 48 48 48 48 48 47 47 47 47 47 48 48 48 48 48 49 49 50 51 51 51 52 52 52 52 51 50 50 50 49 48 47 47 47 47 46 46 47 47 47 46 47 48 48 47 47 47 48 51 53 53 52 51 50 48 49 53 55 49 44 43
66 64 63 63 63 61 60 58 56 55 54 53 53 52 51 51 50 49 49 48 48 49 49 49 49 49 49 49 49 49 49 48 48 48 48 48 48 48 47 48 48 49 50 50 51 52 53 53 53 52 52 52 52 51 50 49 49 49 49 49 49 49 49 49 50 50 50 49 46 43 42 41 43 47 49 49 50 51 51 51 51 48 42 40 41
65 63 63 62 62 62 61 59 58 57 56 55 55 54 53 52 51 50 50 50 50 50 50 51 50 50 49 50 51 51 50 50 50 49 48 48 48 48 48 47 47 48 49 50 51 52 52 52 53 53 54 54 53 53 52 52 52 53 52 53 53 52 50 51 52 50 48 47 47 48 48 46 44 46 49 51 51 51 51 49 46 42 40 40 41
63 63 63 63 64 64 64 62 61 60 59 58 58 56 54 52 51 51 51 52 52 52 52 52 52 51 51 51 52 52 52 51 51 50 49 49 49 49 49 48 47 47 48 50 52 53 53 53 53 54 55 55 54 54 54 54 54 55 55 53 53 52 49 50 53 52 49 49 51 52 52 50 50 52 55 55 51 49 48 47 44 42 42 42 44
58 57 59 62 65 67 67 66 65 63 62 60 59 57 54 52 51 52 52 53 54 54 54 53 53 53 53 53 53 52 52 52 51 50 50 50 49 49 50 49 49 49 50 51 52 52 52 52 53 53 54 55 54 54 54 54 54 54 53 52 53 50 45 46 50 51 47 47 50 51 51 52 53 54 54 53 49 47 46 45 44 44 45 46 47
54 54 53 57 64 70 70 69 68 66 64 61 59 57 54 52 52 53 55 56 57 56 55 54 54 54 54 54 52 52 51 51 51 51 50 50 51 50 50 50 51 51 51 51 51 52 52 52 52 52 53 53 53 53 53 52 51 50 49 50 51 46 40 39 45 49 48 49 53 54 53 53 53 51 50 50 49 48 46 46 47 48 50 51 52
52 54 53 53 58 63 67 68 67 64 61 60 58 57 54 53 54 56 57 57 58 57 56 55 54 53 54 53 51 51 51 51 50 50 50 51 51 51 50 51 52 52 52 51 50 51 51 50 50 50 51 51 52 52 51 50 50 49 48 49 49 46 41 41 45 49 50 53 55 54 53 52 52 50 48 49 49 49 48 50 52 52 52 53 54
55 56 53 52 53 54 59 63 64 62 60 59 58 57 55 55 58 59 57 56 55 55 55 54 52 50 51 52 51 51 51 50 50 49 49 50 51 51 51 52 52 52 51 51 50 50 50 49 48 49 49 49 49 49 48 48 48 48 47 48 49 49 47 47 48 49 50 52 52 49 47 48 48 47 47 48 49 50 50 51 52 52 53 54 56
62 60 55 53 54 56 61 65 63 59 57 57 58 58 57 58 61 61 59 56 56 56 57 57 55 54 54 55 54 53 51 50 50 49 49 49 49 50 51 52 51 51 51 51 50 49 48 47 46 46 46 46 46 46 46 46 45 44 45 47 48 47 47 48 48 48 48 49 49 46 43 43 45 46 48 49 50 52 53 53 53 54 55 57 59
63 62 57 54 55 61 71 79 77 70 64 62 61 61 60 60 61 62 60 59 58 59 60 60 59 57 58 57 56 53 52 50 50 50 49 48 48 49 50 51 51 51 51 51 49 48 47 46 45 44 44 45 45 43 43 44 44 43 44 45 45 45 45 44 45 45 45 46 46 45 44 45 47 49 50 52 52 54 56 57 58 59 60 61 63
59 63 62 60 59 64 72 80 79 74 70 68 66 64 62 62 62 62 61 60 61 62 62 61 59 59 59 57 55 53 52 51 50 50 49 48 48 48 48 48 49 51 51 51 50 49 48 47 46 44 44 44 44 44 44 46 46 45 45 44 44 44 43 42 42 43 43 44 45 46 47 49 52 54 55 55 56 57 58 60 61 63 64 66 67
61 64 65 64 64 66 72 76 74 70 69 69 67 65 64 63 63 63 62 63 63 63 63 62 60 59 58 57 55 53 52 51 51 50 49 48 48 48 47 47 48 49 51 52 52 52 50 49 48 46 45 46 47 48 47 47 47 46 45 45 46 45 45 44 43 44 45 45 48 50 52 54 56 57 57 58 59 61 62 63 64 66 68 70 71
67 67 67 69 71 75 80 82 80 76 74 72 69 67 66 65 65 64 63 63 63 63 63 63 61 60 58 56 55 54 54 53 52 50 49 49 49 49 49 48 48 49 51 52 53 52 51 50 49 47 45 44 45 45 45 46 47 47 47 47 47 46 45 46 47 48 50 52 54 56 57 58 59 60 61 63 64 65 66 67 69 70 71 73 75
73 73 73 75 79 83 86 89 87 84 81 78 74 72 69 67 66 65 63 63 63 63 64 63 62 60 58 57 56 56 56 54 53 52 51 51 50 50 50 50 50 51 52 52 53 53 52 51 50 48 47 46 46 47 48 50 51 51 50 50 50 50 50 52 53 53 55 58 59 61 62 63 65 66 67 68 69 70 71 73 74 75 76 78 80
73 77 80 81 82 83 86 88 86 84 81 79 76 73 71 69 67 65 63 63 63 62 63 62 61 60 59 59 58 58 57 56 55 53 53 52 52 52 53 53 52 52 52 53 53 53 53 52 51 51 51 51 52 53 54 54 54 53 53 54 55 56 57 58 59 59 60 62 64 65 66 67 68 70 71 72 73 74 76 77 78 79 81 83 84
64 70 76 79 81 83 85 84 81 78 76 76 75 74 73 71 68 66 64 63 63 62 62 62 61 61 61 61 61 60 59 57 56 55 55 55 54 55 55 55 55 54 54 54 54 53 53 52 53 53 54 55 55 56 56 56 56 57 58 59 59 60 60 60 61 62 64 66 67 67 68 69 71 73 74 75 76 78 79 81 82 83 84 85 86
58 64 69 72 75 78 81 81 78 77 77 77 76 74 72 69 67 65 64 63 63 63 62 62 62 62 63 63 62 61 60 58 58 58 58 58 58 57 57 57 57 57 57 56 55 55 54 55 55 56 57 57 58 58 58 59 60 60 61 61 61 62 62 63 64 65 67 68 69 69 70 72 73 75 76 78 80 82 84 85 86 86 86 86 87
56 55 59 64 68 71 72 69 67 69 73 74 72 71 69 67 66 65 64 64 63 63 63 63 64 65 65 64 63 62 61 61 61 60 60 60 60 60 59 58 58 59 59 59 58 58 58 59 59 59 60 60 60 61 61 61 62 62 63 63 64 64 64 65 66 67 68 69 70 71 73 74 76 77 79 81 83 85 85 86 86 86 85 85 85
66 60 57 60 63 65 66 65 63 63 66 68 68 68 68 66 65 64 64 64 64 62 61 63 65 65 64 63 62 62 63 63 63 62 62 63 63 61 59 57 57 59 59 59 60 60 61 62 63 63 63 63 64 64 65 64 64 64 64 64 65 65 65 66 67 68 69 70 72 73 75 76 78 80 81 82 83 83 83 82 82 82 81 81 81
73 70 68 67 66 65 64 63 63 63 63 64 65 67 68 67 65 65 64 65 64 62 62 64 67 68 67 65 65 65 65 65 64 64 65 66 65 63 61 60 59 60 60 61 61 61 62 63 64 65 65 66 66 66 66 66 66 66 66 67 68 69 69 70 71 71 73 74 76 78 79 80 82 83 83 84 84 83 81 80 80 81 82 83 84
71 72 73 74 73 70 66 63 63 65 66 66 66 66 67 67 66 66 67 65 63 62 64 66 68 68 68 67 67 68 68 68 67 66 67 68 69 68 68 66 65 63 63 63 64 64 64 65 65 66 67 67 67 66 67 67 68 69 71 72 74 76 77 77 78 79 80 81 82 83 85 86 88 88 88 88 87 85 84 84 85 86 89 90 92
76 75 75 75 74 72 68 65 66 67 68 68 67 67 67 66 66 66 67 67 65 65 66 69 69 68 69 69 70 71 73 73 71 70 71 73 74 74 74 73 71 68 67 67 68 69 68 68 68 69 69 69 69 70 71 72 73 75 77 79 81 82 83 84 84 85 85 86 87 89 91 93 94 94 93 92 92 91 90 90 91 93 94 96 97
Wind_Direction
217 212 209 209 209 212 215 216 218 220 222 223 224 225 225 225 224 224 226 229 233 239 243 247 250 253 257 259 261 265 270 276 282 288 293 298 300 302 303 304 303 305 309 316 322 329 335 338 341 344 348 352 355 357 359 360 1 3 5 8 10 12 15 18 21 22 22 20 22 26 31 31 25 16 8 3 4 6 6 9 15 16 12 9 7
231 223 217 215 216 217 218 218 218 219 222 224 226 227 228 228 226 225 226 227 232 238 242 245 248 251 253 256 257 260 265 270 275 281 286 291 294 296 297 299 298 298 300 304 309 315 321 328 333 336 340 344 348 352 355 356 357 357 359 2 5 8 10 11 15 18 19 18 16 16 19 20 18 10 1 351 346 343 340 341 350 358 1 3 3
245 235 228 223 222 223 224 225 224 223 223 225 226 228 230 231 230 229 229 230 232 237 240 242 245 248 251 253 255 257 260 265 269 273 279 284 287 290 292 293 294 294 294 295 299 303 308 314 322 327 331 335 340 345 350 353 353 353 354 356 359 2 5 6 7 9 13 14 12 9 7 6 4 360 351 343 334 330 330 330 336 348 358 0 358
250 242 238 233 227 226 227 230 231 230 229 230 229 229 231 233 234 234 234 234 235 238 240 242 244 247 250 252 254 255 257 260 263 268 272 277 281 284 286 289 290 291 291 291 291 294 298 302 308 315 321 325 330 335 340 346 349 350 350 351 353 356 359 1 1 1 4 7 7 4 0 355 351 346 338 331 326 324 325 327 332 345 356 355 352
249 247 244 241 234 230 230 231 233 233 233 234 234 234 235 236 237 237 238 239 239 241 243 244 246 249 251 252 253 254 255 258 261 264 268 272 276 279 282 284 286 288 288 288 287 288 291 294 298 303 309 314 319 323 328 334 339 343 346 347 348 350 353 356 357 356 355 357 358 357 354 350 348 342 334 327 325 323 324 328 333 343 353 349 344
244 247 245 243 239 236 235 235 235 236 235 234 236 238 239 240 240 240 240 242 243 244 246 247 249 251 253 254 254 254 256 258 260 262 264 268 271 275 277 279 282 284 285 285 285 285 286 288 291 295 299 304 308 312 316 321 326 331 336 340 343 344 346 349 352 352 350 349 348 345 343 342 342 343 339 332 327 324 326 331 334 341 349 344 338
238 243 244 243 242 239 239 239 240 240 239 237 236 238 241 243 243 243 243 244 245 246 248 250 251 253 254 254 255 255 256 257 259 261 263 265 268 270 273 276 279 281 282 282 283 283 283 284 286 289 293 296 300 304 308 311 315 320 324 329 334 337 340 342 345 348 347 344 341 337 333 332 332 336 339 336 331 327 327 329 331 336 339 334 331
234 237 240 241 241 240 241 242 243 244 244 242 238 237 240 243 244 243 243 245 246 247 248 250 251 252 253 253 255 255 256 258 259 260 262 263 265 268 270 273 275 277 278 279 280 281 282 282 283 285 288 291 294 298 301 304 307 311 315 318 323 327 331 334 337 340 342 341 338 331 327 325 325 327 330 332 331 328 329 329 329 328 326 322 322
233 232 235 238 239 239 241 243 244 245 247 246 244 240 239 242 244 244 243 243 245 246 248 249 249 250 251 252 254 255 256 257 258 259 261 262 263 266 268 271 273 274 276 277 278 279 280 280 281 282 284 286 289 292 296 298 301 304 307 310 314 318 322 326 330 332 333 335 334 329 323 320 320 321 323 324 327 327 326 326 325 324 323 322 323
236 233 233 236 237 237 239 240 242 244 246 248 248 246 243 242 244 245 245 244 243 244 246 247 249 250 250 251 253 254 255 257 258 259 260 261 263 265 267 269 270 273 274 275 276 277 279 279 280 280 282 283 285 288 291 294 296 299 302 305 308 311 314 317 322 324 325 327 328 325 321 318 317 317 317 318 321 323 321 320 320 321 323 323 324
240 236 233 234 236 236 236 238 238 240 242 246 249 250 248 246 246 247 248 247 245 244 244 245 247 249 251 251 252 254 255 256 258 258 259 261 263 264 266 267 269 271 273 274 275 276 277 278 279 280 280 282 283 285 287 289 292 295 298 301 303 306 308 310 315 318 319 319 319 319 317 315 313 312 312 312 314 314 312 312 315 318 320 321 321
240 237 234 233 233 234 235 236 236 237 238 241 245 248 250 250 249 248 249 249 249 247 246 246 246 248 249 251 253 254 256 257 258 259 259 261 263 264 265 267 268 269 271 272 274 275 276 277 278 279 280 281 282 283 285 287 289 291 294 297 299 302 303 305 309 312 313 314 313 312 313 312 309 307 307 307 307 306 305 306 309 312 315 319 321
238 239 237 235 235 235 236 237 237 236 236 237 240 244 247 249 251 250 250 251 251 251 250 249 248 249 249 250 251 253 255 257 258 259 260 261 262 264 265 266 267 268 269 271 273 274 276 277 278 279 280 281 282 283 284 286 287 289 292 294 296 298 300 302 305 307 309 310 309 309 309 309 306 304 303 304 303 303 302 302 305 307 311 318 322
238 239 238 237 236 236 237 238 239 238 238 238 238 239 242 246 249 251 251 251 251 252 253 252 252 252 252 252 252 253 254 256 257 258 259 260 262 264 264 265 266 267 268 270 272 273 275 277 278 280 281 282 282 283 285 286 288 289 291 293 294 296 297 300 302 304 305 306 306 307 307 306 304 301 301 301 302 301 300 303 306 307 310 315 317
238 238 238 238 237 237 237 238 241 241 241 241 241 240 242 244 247 250 251 252 252 252 254 254 254 254 255 256 256 257 257 257 258 258 258 259 261 263 263 264 265 266 267 269 270 272 274 276 278 280 281 282 283 284 285 287 288 289 291 293 294 295 296 298 300 301 302 303 304 304 304 303 300 298 299 300 300 300 302 305 307 307 308 310 310
241 237 237 237 237 238 238 239 241 242 243 244 245 245 246 247 248 250 251 252 253 252 252 253 254 254 256 258 260 261 261 261 261 260 260 260 261 262 263 263 264 265 266 268 270 271 273 275 277 279 280 282 283 284 285 286 288 290 291 293 294 295 296 297 298 299 299 300 301 301 301 300 297 296 298 298 299 300 303 305 306 305 306 308 307
239 237 236 237 237 238 239 239 241 243 244 246 248 248 249 250 250 251 252 253 254 253 253 253 254 254 255 258 260 262 263 263 264 264 263 262 262 262 263 264 264 265 267 269 270 271 272 274 276 278 280 282 283 284 285 286 288 289 291 292 293 294 295 296 297 297 298 299 300 299 299 298 297 297 298 298 301 304 304 303 303 304 306 307 306
233 235 235 236 237 237 238 239 241 243 245 247 249 250 251 252 253 254 254 255 256 256 256 255 255 255 255 255 258 260 262 263 265 265 265 264 264 264 264 265 266 267 269 269 269 270 272 273 275 278 280 281 283 283 285 286 287 289 290 291 292 293 294 295 295 296 297 298 299 298 298 298 297 298 299 301 303 305 303 302 303 304 306 306 307
231 233 234 236 237 238 239 240 241 243 245 247 249 251 253 253 255 256 258 259 259 260 259 258 257 257 257 257 258 259 261 262 264 264 264 264 265 266 267 268 269 271 273 273 272 272 272 273 276 278 280 282 282 283 284 285 287 288 289 290 292 293 294 294 294 295 297 298 298 297 297 297 296 296 298 300 303 304 304 304 305 306 308 309 311
232 231 233 235 237 239 239 240 242 244 247 248 250 251 254 255 257 259 261 263 263 263 263 262 261 260 260 261 260 261 262 262 263 264 264 265 266 268 270 272 274 278 280 279 277 275 275 276 278 279 281 282 282 283 284 285 287 288 289 290 292 293 294 294 295 295 296 297 297 298 298 297 296 295 295 297 301 304 306 306 307 309 311 311 311
232 231 233 235 237 239 240 242 243 245 247 250 251 252 254 257 260 263 265 267 267 266 265 265 264 263 262 262 262 262 262 263 264 264 265 266 267 269 272 275 277 281 283 282 280 279 278 279 280 280 281 281 282 283 284 286 287 289 289 291 292 292 294 295 295 294 295 296 296 296 296 296 297 296 296 297 300 302 304 304 305 307 306 304 304
235 236 236 236 238 240 241 243 244 246 248 250 252 253 256 259 262 265 268 269 269 268 268 268 267 265 264 263 262 262 262 263 264 265 266 267 269 271 273 275 277 279 280 280 280 280 280 280 280 280 280 281 282 284 286 287 288 288 289 290 290 292 293 293 294 294 295 295 294 293 293 293 294 295 295 296 297 299 299 300 300 300 300 301 303
236 237 236 236 238 240 242 244 245 246 248 251 253 255 258 261 264 267 269 270 270 270 270 269 268 267 266 265 264 264 264 264 264 265 266 267 269 271 273 274 275 276 277 277 278 278 278 278 278 279 280 281 283 285 286 287 287 287 288 289 289 291 291 292 293 293 294 294 293 292 291 290 290 290 292 293 294 294 294 293 293 294 296 297 298
234 236 237 237 238 241 243 246 247 248 249 252 255 257 259 262 266 268 270 271 271 272 271 270 269 268 267 267 266 265 265 265 265 266 266 267 268 269 270 271 273 273 274 275 275 275 276 276 278 280 282 283 284 285 286 286 286 286 287 287 288 289 289 290 291 291 292 293 293 293 292 290 289 289 290 290 291 290 290 290 290 291 291 291 293
236 238 240 239 239 242 245 247 248 250 251 253 255 258 260 263 265 267 269 269 270 271 271 271 270 268 267 267 267 266 266 266 266 266 266 266 266 267 268 269 270 271 272 273 274 274 275 277 279 280 281 282 283 284 284 284 285 285 285 285 286 287 288 289 290 291 292 293 293 294 295 294 293 293 292 291 291 290 289 289 289 290 290 291 293
238 240 241 241 241 243 245 247 249 250 252 254 256 258 259 261 263 265 267 268 269 270 271 271 270 269 268 267 266 266 266 267 267 267 267 266 266 266 266 267 268 270 271 272 273 274 275 276 277 278 280 281 281 281 281 282 283 283 284 284 285 287 289 290 291 293 293 294 294 296 296 297 297 298 298 297 295 293 292 291 291 292 293 295 295
238 240 240 241 242 243 245 247 249 251 253 255 256 257 259 261 262 263 265 267 268 270 272 273 272 271 270 268 267 267 266 266 266 266 266 266 266 266 266 267 268 269 271 272 273 274 274 275 276 277 279 279 279 279 279 279 280 282 283 284 286 288 289 290 292 294 294 294 295 297 297 298 299 300 300 299 297 295 294 293 294 296 297 297 296
237 239 240 241 242 244 245 247 249 252 254 255 256 257 259 260 261 263 265 268 271 273 275 276 275 273 272 271 269 268 267 267 266 266 266 266 266 267 268 269 270 270 270 271 272 273 273 274 275 277 278 278 277 277 277 277 278 279 281 283 285 286 287 289 291 293 294 294 295 297 298 300 300 300 300 300 299 297 293 292 296 300 298 295 294
237 239 240 242 243 245 247 248 250 252 253 255 256 257 259 260 262 265 268 271 274 276 278 278 277 275 273 272 270 269 268 268 268 268 269 269 269 270 270 270 270 270 270 271 271 272 273 273 274 275 276 276 276 277 277 277 278 279 280 282 284 284 286 288 290 291 293 294 296 299 301 301 299 298 297 299 301 300 291 289 298 303 299 293 292
238 239 241 243 245 247 249 250 251 252 253 254 256 257 260 262 264 267 270 274 276 277 278 278 277 276 274 272 271 270 269 269 270 270 271 272 272 272 272 272 271 271 272 272 272 272 272 273 274 274 274 274 276 277 277 278 279 280 280 281 282 283 285 287 289 291 292 294 297 300 303 301 298 297 296 298 302 301 294 292 299 302 298 293 292
240 241 243 245 247 249 251 253 254 254 254 255 256 258 261 263 266 269 272 274 276 277 278 278 278 276 275 272 271 270 270 271 271 271 272 273 274 274 274 274 274 274 274 274 273 273 273 273 273 274 273 274 276 276 278 279 279 279 280 280 281 283 286 288 290 290 291 292 293 292 292 290 290 293 296 298 300 299 296 295 297 298 296 294 291
242 244 245 248 251 253 255 256 256 255 255 256 257 259 261 264 267 270 272 274 276 278 278 279 278 277 274 272 271 271 271 271 272 272 273 273 274 275 275 275 276 276 277 276 275 274 274 274 274 274 275 275 276 277 278 278 279 279 280 281 283 285 288 289 289 290 291 291 289 287 285 283 282 285 291 295 296 295 294 294 294 294 294 295 291
246 249 252 254 255 257 258 257 257 256 256 257 258 260 263 265 268 271 273 275 276 277 278 278 277 276 274 273 272 272 272 273 273 274 275 275 275 275 275 275 275 275 275 275 275 275 275 276 276 276 277 277 277 278 278 278 279 280 282 284 285 287 289 291 291 291 290 289 288 288 288 286 284 285 289 292 293 292 290 290 292 293 293 293 292
250 255 260 263 262 261 259 258 257 256 256 257 259 261 264 266 269 271 273 275 275 276 277 276 275 275 275 274 274 274 274 275 275 275 276 276 276 276 276 276 275 274 274 273 274 275 276 276 277 277 277 278 279 279 279 279 280 283 285 287 287 287 290 292 290 288 286 285 287 288 290 289 288 287 288 288 287 285 286 289 293 296 295 294 293
248 251 256 262 264 263 260 257 255 255 256 257 259 261 263 266 269 271 272 273 273 272 271 271 273 275 276 275 276 276 275 275 276 276 276 277 277 278 278 277 276 275 275 275 275 276 276 277 277 278 278 279 279 279 280 281 283 284 286 285 284 285 286 283 280 280 282 284 286 288 289 289 287 286 286 285 282 282 285 289 291 294 295 294 293
241 244 245 250 256 261 261 257 254 252 253 255 257 259 262 264 266 267 269 269 268 267 267 270 274 277 276 275 275 276 276 276 276 277 277 277 277 277 277 276 276 276 277 277 277 277 276 277 277 278 278 278 279 280 281 283 283 282 281 279 279 280 279 275 273 276 281 284 285 287 288 287 286 286 286 284 281 281 284 287 288 290 292 293 293
235 239 240 241 247 255 260 257 253 250 250 253 255 258 261 263 264 266 268 267 267 267 269 273 277 276 274 274 276 277 277 277 277 277 277 277 277 277 277 276 276 276 277 277 277 276 277 277 277 278 278 279 279 280 281 281 281 281 281 280 280 280 279 277 278 280 283 285 285 286 285 285 285 286 285 283 282 282 285 287 288 290 292 292 293
233 237 240 243 246 250 253 253 252 251 252 255 257 259 262 264 266 268 270 270 270 271 272 274 275 273 271 274 277 277 277 277 277 277 277 278 278 278 276 275 275 275 275 276 276 276 277 277 277 278 279 280 280 280 281 281 281 281 281 281 282 282 281 282 283 285 286 286 284 282 283 285 286 284 283 283 282 283 285 287 288 289 290 292 293
236 239 242 244 246 247 249 251 254 255 256 259 260 261 263 265 267 270 273 274 273 273 273 273 273 271 271 273 277 278 279 279 278 278 278 278 278 277 277 277 277 277 277 276 276 275 275 276 277 278 279 280 281 282 282 282 281 280 279 280 282 283 283 285 286 287 286 285 282 281 283 286 285 283 283 284 284 284 285 287 288 289 289 290 291
238 241 241 242 244 246 248 250 252 255 257 259 262 263 264 266 268 271 272 273 272 272 272 272 272 271 272 275 277 278 278 278 277 277 277 278 278 278 279 280 280 279 278 277 276 275 275 275 276 277 278 280 282 282 281 281 281 281 281 282 282 282 282 282 283 283 282 282 283 284 284 285 285 285 286 286 286 285 285 286 287 288 288 289 289
233 239 242 244 244 244 245 249 253 257 259 261 263 264 265 266 268 269 271 272 272 272 272 272 271 272 273 275 276 277 276 275 275 276 277 278 279 280 280 281 281 280 279 278 277 277 276 276 276 276 278 280 281 280 280 280 280 280 280 280 280 280 280 278 278 279 280 282 284 285 284 283 284 285 285 285 286 286 286 286 286 287 287 287 288
226 232 238 242 244 244 247 251 257 261 262 263 263 264 265 266 267 268 270 271 271 271 271 271 271 271 272 273 274 274 274 274 275 276 277 278 278 279 279 280 281 281 280 279 279 279 278 278 277 277 277 277 277 278 279 280 280 279 279 279 279 279 280 279 279 279 280 281 283 283 283 283 284 284 285 286 287 287 287 287 287 287 287 287 288
225 226 230 235 241 246 250 253 257 261 263 263 262 262 263 265 266 267 268 269 269 269 269 269 270 270 271 271 272 272 273 273 274 276 276 277 278 278 279 279 280 280 279 280 280 280 279 279 278 276 275 275 275 277 279 281 281 281 280 279 279 281 282 282 281 280 280 280 282 283 284 285 286 286 288 289 289 289 290 290 290 290 290 290 291
226 226 228 231 237 243 249 253 256 258 260 260 259 260 262 263 264 264 265 265 266 266 267 268 269 270 270 271 271 271 271 272 273 274 275 276 276 277 277 278 279 279 279 279 278 278 278 279 278 277 276 275 276 277 279 281 282 282 281 280 281 282 283 283 283 283 283 283 284 285 287 288 289 290 291 292 292 292 292 292 293 293 293 294 294
226 227 229 231 234 239 245 249 252 254 256 258 258 259 260 261 261 261 261 262 263 264 265 266 267 268 269 270 270 270 269 270 272 273 275 275 275 276 276 277 278 278 278 277 276 275 276 277 277 277 277 277 277 278 279 280 281 281 282 282 283 284 284 285 285 285 286 287 288 289 290 290 291 292 293 294 294 294 295 295 295 295 295 295 296
223 226 227 229 231 235 240 244 249 253 256 258 258 257 257 257 258 258 260 261 262 263 264 265 265 266 267 267 268 268 268 269 272 274 275 275 275 274 274 274 276 276 276 276 275 275 275 275 276 277 277 278 278 279 279 280 280 281 282 283 284 284 285 286 286 287 288 289 290 290 291 291 292 294 295 296 296 296 296 296 295 295 295 294 294
222 226 229 229 230 232 235 238 244 250 253 255 255 255 255 256 256 257 259 260 261 263 265 266 265 264 264 265 266 267 267 270 273 275 275 276 276 274 273 273 275 276 277 277 276 275 276 277 278 279 278 278 278 278 279 279 279 280 281 282 284 285 286 286 287 287 288 289 290 291 292 293 294 295 295 296 296 296 295 294 294 294 294 293 293
228 232 235 236 235 236 236 237 241 245 247 249 251 252 252 253 254 255 256 258 260 262 264 264 264 264 264 265 266 268 269 271 275 276 276 277 277 274 272 273 276 277 277 278 278 278 278 280 281 281 280 279 279 278 278 279 280 281 282 283 285 286 286 287 288 289 289 290 291 292 293 294 295 295 295 296 296 296 295 294 294 294 295 296 297
231 233 236 238 240 240 239 239 240 242 244 245 248 251 251 251 252 253 254 255 257 260 260 260 260 262 264 266 268 269 270 273 275 275 276 277 276 274 272 275 277 278 278 278 279 279 280 281 282 282 282 282 281 280 280 280 281 282 283 284 285 286 287 287 288 289 290 290 290 291 292 294 295 296 296 297 297 297 296 296 297 299 301 303 305
226 227 231 235 239 239 239 237 238 240 242 244 247 250 251 251 251 252 253 253 255 258 259 257 257 259 262 265 267 269 271 272 273 273 273 274 275 274 274 275 276 277 278 279 279 279 279 280 281 282 283 283 283 283 282 282 283 283 284 285 286 286 287 287 288 288 288 289 290 290 292 293 296 297 298 298 298 299 300 302 304 305 306 307 308
225 225 227 230 234 237 238 238 238 238 240 242 245 248 250 251 250 250 252 253 254 256 257 258 259 260 262 264 265 268 270 271 271 270 270 272 274 275 275 274 274 276 279 281 281 280 279 279 280 282 283 283 283 283 283 283 284 284 285 285 285 286 286 287 287 287 288 289 291 292 293 294 296 298 299 300 301 303 304 305 306 306 306 307 307
Height
11001 11002 11004 11005 11007 11009 11011 11013 11016 11018 11019 11021 11022 11024 11025 11026 11027 11028 11029 11030 11031 11031 11032 11032 11033 11033 11034 11034 11034 11034 11034 11034 11034 11034 11034 11033 11033 11033 11033 11033 11033 11032 11032 11032 11032 11031 11031 11030 11029 11029 11028 11027 11026 11025 11024 11022 11021 11020 11019 11018 11017 11015 11014 11013 11012 11011 11010 11009 11008 11007 11006 11005 11003 11001 10999 10998 10996 10994 10993 10992 10991 10990 10989 10988 10986
11000 11001 11002 11004 11006 11007 11009 11011 11013 11015 11016 11018 11020 11021 11022 11023 11025 11026 11027 11028 11029 11029 11030 11030 11031 11032 11032 11033 11033 11033 11033 11033 11033 11033 11033 11032 11032 11032 11032 11031 11031 11031 11031 11031 11031 11030 11030 11029 11029 11028 11027 11027 11026 11025 11024 11022 11021 11020 11019 11019 11018 11017 11015 11014 11012 11012 11011 11010 11008 11007 11006 11005 11003 11002 10999 10997 10995 10994 10993 10992 10991 10990 10989 10988 10987
10999 11001 11001 11003 11005 11006 11008 11009 11010 11012 11013 11015 11017 11018 11020 11021 11022 11023 11025 11026 11026 11027 11028 11028 11029 11029 11030 11031 11031 11031 11031 11031 11031 11031 11031 11031 11030 11030 11030 11030 11030 11030 11030 11029 11029 11029 11029 11028 11028 11027 11027 11026 11025 11024 11024 11022 11021 11020 11019 11018 11018 11017 11016 11015 11013 11012 11011 11010 11009 11007 11006 11005 11003 11001 10999 10997 10995 10994 10993 10992 10991 10990 10989 10987 10987
10998 10999 11000 11002 11003 11005 11006 11007 11008 11010 11011 11013 11014 11016 11017 11018 11020 11021 11022 11023 11024 11025 11025 11026 11026 11027 11028 11028 11029 11029 11029 11029 11029 11029 11029 11029 11029 11028 11028 11028 11028 11028 11028 11028 11027 11027 11027 11027 11026 11026 11025 11025 11024 11024 11023 11022 11021 11020 11018 11018 11017 11017 11017 11016 11015 11013 11012 11011 11009 11007 11006 11004 11003 11001 10999 10998 10996 10994 10993 10992 10991 10990 10989 10987 10987
10996 10998 10999 11001 11002 11003 11004 11005 11006 11007 11009 11011 11012 11014 11015 11016 11017 11019 11020 11021 11022 11022 11023 11023 11024 11025 11025 11026 11026 11026 11026 11026 11027 11027 11027 11027 11027 11026 11026 11026 11026 11026 11026 11026 11025 11025 11025 11025 11025 11024 11024 11023 11023 11023 11022 11022 11021 11019 11018 11017 11017 11016 11016 11016 11015 11014 11012 11010 11009 11007 11005 11003 11002 11000 10999 10997 10995 10994 10993 10992 10991 10990 10989 10986 10985
10994 10996 10998 10999 11000 11001 11002 11003 11003 11005 11006 11008 11010 11012 11013 11014 11015 11016 11017 11018 11019 11020 11021 11021 11022 11023 11023 11023 11024 11024 11024 11024 11024 11024 11025 11025 11025 11024 11024 11024 11024 11024 11024 11024 11023 11023 11023 11023 11023 11022 11022 11022 11021 11021 11021 11020 11020 11019 11018 11017 11016 11016 11016 11016 11015 11014 11012 11010 11008 11006 11004 11002 11001 11000 10999 10997 10995 10993 10992 10991 10990 10989 10988 10986 10983
10992 10994 10996 10997 10998 10999 11000 11000 11001 11002 11004 11006 11008 11009 11010 11011 11012 11014 11015 11016 11017 11018 11018 11019 11020 11020 11021 11021 11021 11021 11021 11021 11022 11022 11022 11022 11022 11022 11022 11021 11021 11021 11021 11021 11021 11020 11020 11020 11020 11020 11020 11020 11019 11019 11019 11018 11018 11018 11017 11016 11016 11015 11015 11015 11015 11014 11012 11010 11008 11005 11003 11000 10999 10999 10999 10997 10994 10992 10991 10990 10989 10988 10987 10986 10983
10990 10992 10993 10994 10996 10997 10998 10999 11000 11001 11002 11004 11005 11007 11007 11008 11009 11011 11012 11013 11014 11015 11015 11016 11017 11017 11018 11018 11018 11018 11018 11018 11019 11019 11019 11019 11019 11019 11019 11019 11019 11019 11019 11018 11018 11018 11018 11017 11017 11017 11017 11017 11017 11017 11016 11016 11016 11016 11015 11015 11014 11014 11014 11013 11013 11013 11012 11010 11007 11004 11001 10999 10998 10997 10997 10996 10994 10991 10989 10988 10987 10986 10985 10984 10983
10987 10989 10990 10991 10993 10995 10996 10997 10998 10999 11000 11001 11002 11004 11004 11005 11006 11007 11009 11010 11011 11012 11012 11013 11013 11014 11014 11015 11015 11015 11015 11015 11016 11016 11016 11016 11016 11016 11016 11016 11016 11015 11016 11016 11015 11015 11015 11015 11015 11014 11014 11014 11014 11014 11014 11013 11013 11013 11013 11013 11012 11012 11012 11012 11012 11011 11010 11009 11006 11003 11000 10998 10997 10995 10994 10993 10992 10990 10987 10985 10985 10983 10982 10981 10980
10985 10986 10987 10989 10991 10993 10994 10995 10996 10997 10997 10998 10999 11000 11002 11002 11003 11004 11005 11006 11008 11008 11009 11009 11010 11010 11011 11011 11011 11011 11011 11012 11012 11013 11013 11013 11013 11013 11013 11013 11013 11012 11013 11013 11012 11012 11012 11012 11012 11011 11011 11011 11011 11011 11011 11011 11010 11010 11010 11010 11010 11010 11010 11010 11010 11010 11009 11007 11005 11002 10998 10996 10995 10994 10992 10991 10990 10988 10986 10983 10982 10981 10979 10978 10976
10982 10983 10985 10986 10988 10990 10991 10991 10993 10994 10995 10995 10996 10997 10998 11000 11000 11000 11001 11003 11004 11005 11006 11006 11007 11007 11008 11008 11008 11008 11008 11008 11009 11010 11010 11010 11010 11010 11010 11010 11010 11009 11009 11009 11009 11009 11009 11009 11009 11009 11009 11008 11008 11008 11008 11008 11007 11007 11007 11007 11007 11007 11007 11007 11007 11007 11006 11005 11003 11000 10997 10995 10993 10992 10991 10990 10989 10988 10985 10982 10980 10978 10977 10975 10973
10978 10980 10982 10983 10985 10986 10987 10988 10989 10990 10991 10992 10993 10994 10995 10996 10997 10997 10998 10999 11000 11001 11002 11002 11003 11004 11004 11005 11004 11004 11004 11005 11006 11006 11007 11006 11006 11006 11007 11007 11007 11006 11006 11006 11006 11006 11006 11006 11006 11006 11006 11005 11005 11005 11005 11005 11004 11004 11004 11004 11004 11004 11003 11003 11004 11004 11004 11003 11001 10999 10995 10993 10991 10990 10989 10989 10988 10986 10984 10981 10979 10978 10976 10973 10970
10975 10977 10979 10980 10981 10982 10984 10984 10985 10986 10987 10988 10989 10990 10991 10992 10992 10993 10994 10996 10997 10998 10998 10999 11000 11000 11001 11001 11001 11001 11001 11001 11002 11003 11003 11003 11002 11003 11003 11003 11003 11003 11003 11003 11003 11003 11003 11003 11003 11003 11003 11003 11002 11001 11001 11001 11001 11001 11001 11001 11001 11001 11000 11000 11000 11000 11000 10999 10998 10996 10994 10990 10987 10985 10985 10986 10985 10984 10982 10980 10979 10977 10976 10974 10971
10973 10974 10975 10976 10977 10978 10979 10980 10981 10982 10983 10984 10985 10986 10987 10987 10988 10989 10990 10992 10993 10994 10995 10996 10997 10997 10997 10998 10998 10998 10997 10997 10998 10999 10999 10999 10999 10999 10999 10999 10999 10999 11000 11000 11000 11000 10999 10999 11000 11000 11000 10999 10999 10998 10998 10997 10997 10997 10997 10998 10998 10997 10997 10996 10996 10996 10996 10996 10994 10993 10991 10988 10984 10981 10981 10982 10981 10980 10980 10979 10977 10975 10974 10973 10972
10970 10971 10971 10971 10972 10974 10975 10976 10978 10979 10979 10980 10981 10982 10983 10984 10984 10985 10986 10988 10989 10990 10992 10993 10994 10994 10994 10995 10995 10995 10994 10994 10994 10995 10995 10995 10995 10994 10994 10994 10995 10995 10996 10997 10997 10996 10996 10996 10996 10996 10996 10996 10996 10995 10994 10994 10993 10993 10993 10994 10993 10993 10993 10992 10992 10992 10992 10992 10991 10989 10988 10986 10981 10977 10976 10978 10978 10976 10976 10976 10975 10973 10971 10969 10968
10965 10965 10966 10966 10967 10969 10971 10972 10974 10975 10975 10976 10977 10979 10980 10980 10981 10982 10982 10983 10985 10986 10987 10988 10989 10990 10991 10992 10991 10991 10991 10990 10990 10991 10992 10991 10991 10990 10989 10990 10990 10991 10992 10993 10993 10993 10993 10992 10992 10992 10992 10993 10992 10992 10991 10990 10990 10989 10989 10989 10989 10989 10988 10988 10988 10988 10988 10988 10987 10985 10984 10983 10978 10974 10974 10975 10975 10974 10973 10973 10971 10969 10967 10965 10963
10957 10958 10960 10960 10962 10964 10966 10968 10970 10970 10971 10973 10974 10975 10977 10977 10977 10978 10979 10979 10980 10982 10983 10984 10985 10986 10987 10988 10987 10987 10987 10986 10986 10987 10988 10987 10986 10985 10985 10985 10986 10987 10988 10990 10990 10989 10989 10989 10989 10989 10989 10989 10989 10988 10988 10987 10986 10985 10985 10985 10984 10984 10984 10983 10983 10982 10982 10983 10982 10980 10979 10978 10975 10971 10970 10971 10972 10971 10969 10968 10966 10964 10962 10960 10958
10947 10950 10953 10954 10956 10959 10962 10964 10965 10966 10967 10968 10970 10971 10973 10973 10974 10975 10975 10976 10977 10977 10979 10980 10980 10981 10982 10983 10983 10983 10983 10983 10982 10983 10983 10983 10982 10981 10980 10981 10981 10983 10985 10986 10986 10985 10985 10985 10985 10985 10985 10985 10984 10984 10984 10983 10982 10981 10980 10980 10979 10979 10979 10978 10977 10977 10977 10978 10977 10975 10975 10974 10971 10968 10966 10966 10968 10968 10965 10962 10960 10958 10957 10955 10953
10940 10942 10946 10949 10952 10955 10958 10959 10960 10962 10963 10964 10966 10968 10969 10970 10970 10971 10972 10972 10973 10974 10975 10976 10976 10976 10977 10978 10978 10979 10979 10979 10978 10978 10979 10979 10978 10977 10977 10977 10977 10979 10981 10982 10981 10981 10981 10981 10981 10981 10981 10981 10980 10979 10979 10978 10978 10977 10976 10975 10974 10974 10973 10973 10972 10972 10972 10973 10972 10971 10970 10969 10968 10966 10964 10962 10962 10962 10960 10957 10955 10952 10951 10949 10946
10935 10937 10941 10945 10948 10950 10953 10954 10956 10957 10959 10960 10963 10964 10964 10966 10966 10967 10968 10969 10969 10970 10970 10971 10972 10972 10972 10973 10974 10974 10974 10974 10974 10974 10974 10975 10974 10974 10973 10973 10974 10976 10978 10978 10977 10976 10977 10977 10977 10976 10976 10976 10975 10974 10974 10973 10973 10973 10972 10971 10970 10969 10968 10967 10966 10966 10967 10968 10968 10966 10964 10963 10962 10963 10962 10960 10958 10956 10954 10952 10950 10947 10944 10942 10941
10932 10935 10938 10941 10943 10945 10947 10949 10951 10954 10955 10956 10958 10959 10960 10961 10963 10964 10965 10965 10966 10966 10966 10967 10967 10968 10968 10968 10969 10969 10969 10969 10969 10969 10970 10971 10971 10971 10970 10969 10970 10972 10973 10973 10972 10972 10972 10972 10972 10972 10972 10971 10970 10969 10969 10969 10968 10968 10967 10967 10966 10964 10963 10961 10960 10960 10961 10963 10964 10963 10961 10958 10956 10956 10956 10956 10955 10953 10950 10949 10947 10945 10941 10938 10936
10929 10932 10934 10937 10938 10940 10942 10945 10947 10950 10951 10952 10954 10956 10957 10958 10959 10960 10961 10961 10961 10961 10961 10962 10963 10963 10963 10964 10964 10964 10964 10965 10964 10964 10966 10967 10968 10968 10967 10965 10966 10967 10968 10968 10968 10967 10967 10967 10966 10966 10966 10966 10966 10965 10964 10964 10964 10963 10963 10962 10961 10959 10958 10957 10955 10954 10954 10955 10958 10959 10959 10957 10954 10951 10950 10950 10951 10950 10948 10946 10945 10943 10939 10934 10930
10925 10928 10931 10933 10934 10935 10937 10940 10943 10945 10947 10948 10950 10952 10954 10955 10956 10956 10957 10957 10956 10956 10956 10957 10958 10958 10958 10958 10959 10959 10960 10960 10960 10959 10961 10963 10963 10963 10962 10961 10960 10961 10962 10963 10963 10963 10962 10961 10961 10961 10961 10962 10962 10961 10960 10959 10959 10959 10959 10958 10957 10955 10954 10952 10950 10949 10948 10948 10950 10952 10954 10954 10952 10950 10948 10947 10946 10946 10945 10943 10942 10941 10938 10933 10927
10921 10924 10926 10928 10930 10930 10932 10936 10939 10941 10943 10944 10947 10949 10950 10951 10952 10952 10952 10952 10952 10951 10952 10952 10953 10953 10953 10953 10954 10954 10955 10955 10955 10955 10956 10958 10958 10958 10957 10956 10955 10956 10957 10958 10958 10958 10957 10956 10956 10957 10957 10957 10958 10957 10956 10955 10954 10955 10955 10954 10952 10951 10950 10948 10946 10945 10944 10943 10944 10945 10946 10947 10947 10947 10946 10944 10942 10941 10940 10939 10938 10937 10936 10933 10929
10916 10919 10920 10923 10925 10925 10928 10931 10934 10937 10938 10940 10943 10945 10947 10948 10948 10947 10947 10947 10947 10946 10947 10947 10948 10948 10948 10948 10949 10949 10950 10950 10950 10950 10950 10951 10952 10952 10951 10951 10951 10951 10952 10953 10953 10953 10953 10953 10953 10953 10952 10953 10953 10952 10952 10951 10950 10950 10950 10949 10948 10947 10945 10944 10943 10941 10940 10939 10939 10939 10939 10939 10939 10941 10941 10940 10939 10937 10935 10934 10933 10932 10931 10930 10928
10910 10913 10915 10918 10920 10921 10924 10927 10929 10932 10934 10936 10939 10941 10942 10943 10943 10942 10942 10942 10942 10941 10941 10942 10942 10943 10943 10943 10944 10944 10944 10945 10945 10944 10945 10945 10945 10945 10945 10946 10946 10946 10947 10948 10948 10949 10949 10949 10948 10948 10948 10948 10948 10948 10947 10947 10945 10945 10945 10944 10944 10943 10941 10940 10939 10938 10937 10936 10935 10935 10934 10933 10932 10934 10935 10934 10933 10932 10930 10929 10928 10927 10926 10925 10923
10905 10907 10910 10913 10915 10917 10920 10922 10925 10928 10929 10931 10934 10936 10937 10937 10938 10937 10937 10937 10937 10936 10936 10937 10937 10937 10938 10938 10939 10939 10940 10940 10939 10939 10939 10939 10939 10939 10939 10940 10941 10942 10942 10943 10944 10944 10944 10944 10943 10943 10943 10943 10943 10943 10943 10943 10942 10940 10939 10939 10939 10938 10937 10936 10936 10935 10934 10933 10932 10931 10930 10929 10927 10928 10927 10926 10925 10924 10924 10923 10922 10921 10920 10918 10915
10899 10901 10905 10908 10910 10912 10915 10918 10921 10923 10925 10926 10929 10931 10931 10932 10932 10931 10931 10932 10932 10932 10932 10932 10932 10932 10933 10934 10934 10934 10934 10934 10933 10933 10933 10933 10933 10933 10934 10935 10936 10936 10936 10937 10938 10939 10939 10939 10938 10938 10938 10938 10937 10937 10937 10938 10938 10936 10934 10934 10934 10933 10932 10931 10932 10931 10930 10930 10930 10929 10928 10926 10924 10922 10921 10919 10918 10917 10916 10916 10915 10913 10912 10910 10908
10893 10896 10900 10903 10905 10908 10911 10914 10917 10919 10920 10922 10923 10924 10925 10925 10926 10926 10926 10927 10927 10927 10927 10927 10927 10928 10928 10929 10929 10929 10928 10928 10928 10928 10927 10927 10928 10928 10929 10930 10930 10930 10930 10931 10932 10932 10933 10933 10933 10933 10933 10932 10931 10931 10932 10932 10932 10931 10930 10930 10929 10928 10927 10927 10928 10927 10926 10926 10926 10925 10925 10922 10918 10916 10914 10913 10912 10910 10909 10908 10907 10905 10903 10902 10900
10888 10893 10897 10899 10901 10904 10907 10910 10913 10915 10916 10917 10917 10918 10919 10920 10920 10920 10921 10922 10922 10922 10922 10922 10922 10922 10923 10923 10923 10923 10922 10922 10923 10923 10922 10922 10922 10923 10924 10924 10924 10924 10924 10925 10926 10926 10926 10926 10927 10927 10927 10926 10925 10926 10927 10926 10925 10924 10924 10924 10924 10923 10923 10923 10923 10922 10922 10922 10922 10923 10922 10920 10916 10912 10910 10907 10906 10905 10903 10902 10900 10898 10895 10894 10894
10885 10890 10894 10896 10898 10901 10903 10906 10909 10911 10911 10912 10912 10912 10914 10914 10915 10915 10915 10916 10917 10916 10916 10916 10917 10917 10918 10917 10916 10917 10917 10917 10917 10917 10917 10916 10917 10917 10918 10919 10919 10918 10919 10920 10920 10919 10919 10919 10920 10921 10921 10920 10920 10920 10921 10920 10919 10918 10918 10918 10918 10918 10919 10919 10918 10917 10917 10916 10917 10918 10918 10918 10915 10911 10907 10903 10901 10900 10897 10895 10893 10891 10889 10888 10888
10883 10888 10892 10894 10896 10897 10900 10902 10904 10905 10905 10906 10906 10907 10908 10909 10910 10910 10909 10909 10910 10911 10910 10910 10911 10911 10912 10911 10910 10911 10911 10911 10911 10912 10912 10911 10911 10912 10912 10913 10914 10913 10914 10914 10913 10912 10913 10913 10913 10913 10913 10913 10914 10914 10914 10914 10912 10911 10912 10912 10912 10914 10916 10914 10911 10910 10910 10910 10910 10910 10910 10910 10909 10906 10901 10898 10897 10894 10890 10888 10886 10884 10883 10883 10882
10882 10887 10889 10892 10892 10893 10894 10896 10897 10898 10900 10899 10899 10901 10903 10904 10905 10904 10903 10903 10904 10904 10904 10904 10904 10905 10906 10905 10905 10905 10906 10906 10907 10907 10907 10907 10906 10906 10906 10907 10908 10908 10908 10907 10905 10905 10906 10907 10907 10907 10906 10906 10907 10907 10907 10907 10906 10905 10906 10907 10907 10909 10912 10911 10906 10904 10904 10904 10902 10901 10901 10901 10900 10898 10895 10892 10891 10888 10884 10881 10879 10877 10877 10877 10876
10883 10887 10888 10888 10886 10884 10887 10889 10889 10890 10892 10893 10893 10895 10897 10899 10899 10897 10896 10896 10896 10896 10897 10897 10898 10899 10899 10899 10899 10900 10901 10901 10902 10902 10902 10902 10901 10901 10901 10901 10901 10902 10901 10900 10899 10899 10900 10900 10900 10900 10899 10898 10899 10899 10899 10900 10900 10899 10900 10901 10900 10902 10907 10907 10901 10896 10896 10896 10893 10892 10893 10894 10892 10890 10888 10886 10884 10882 10878 10875 10873 10872 10870 10869 10869
10882 10886 10889 10888 10882 10875 10875 10878 10879 10881 10884 10886 10887 10888 10891 10893 10892 10890 10888 10888 10889 10889 10890 10891 10891 10892 10893 10893 10894 10895 10896 10896 10896 10897 10897 10897 10896 10896 10896 10895 10894 10894 10894 10894 10894 10894 10894 10893 10893 10893 10892 10891 10891 10892 10892 10893 10894 10894 10895 10893 10890 10892 10899 10899 10892 10887 10888 10888 10885 10884 10886 10886 10884 10882 10881 10879 10877 10876 10873 10870 10869 10867 10864 10862 10862
10875 10878 10885 10888 10884 10876 10871 10870 10870 10872 10876 10878 10879 10881 10884 10885 10882 10880 10880 10881 10882 10882 10883 10884 10886 10887 10887 10888 10889 10889 10890 10891 10891 10891 10891 10891 10891 10891 10890 10889 10888 10887 10887 10888 10888 10888 10887 10887 10887 10886 10886 10885 10884 10884 10886 10887 10886 10887 10887 10885 10882 10884 10888 10888 10884 10882 10883 10881 10878 10878 10878 10876 10874 10874 10874 10871 10870 10869 10868 10864 10863 10862 10859 10857 10855
10867 10871 10878 10883 10885 10883 10878 10870 10863 10863 10868 10871 10872 10874 10877 10876 10872 10871 10874 10876 10876 10876 10877 10879 10881 10882 10882 10882 10883 10883 10884 10885 10885 10885 10886 10885 10885 10885 10884 10883 10882 10881 10881 10881 10882 10881 10881 10881 10881 10880 10879 10879 10878 10879 10880 10880 10879 10879 10879 10878 10877 10878 10879 10878 10876 10877 10877 10874 10872 10872 10870 10868 10867 10868 10866 10864 10862 10861 10859 10857 10856 10855 10853 10851 10848
10863 10868 10874 10879 10883 10885 10880 10868 10858 10856 10860 10864 10866 10868 10870 10868 10865 10865 10869 10872 10872 10872 10873 10875 10876 10877 10876 10877 10877 10877 10878 10879 10879 10879 10879 10879 10879 10879 10878 10877 10877 10876 10876 10876 10876 10875 10875 10875 10874 10874 10873 10873 10873 10873 10874 10873 10873 10875 10875 10873 10871 10871 10871 10869 10868 10869 10869 10867 10864 10863 10862 10861 10860 10860 10858 10857 10856 10854 10852 10850 10849 10848 10846 10844 10842
10863 10865 10870 10874 10877 10879 10873 10861 10852 10851 10854 10856 10858 10861 10864 10863 10861 10860 10863 10865 10866 10866 10866 10867 10869 10869 10870 10870 10871 10872 10872 10873 10873 10872 10873 10873 10873 10872 10871 10871 10871 10870 10870 10870 10870 10869 10869 10869 10869 10868 10867 10866 10866 10868 10868 10866 10865 10867 10868 10867 10866 10864 10863 10862 10861 10862 10862 10860 10857 10856 10855 10854 10852 10851 10850 10850 10850 10848 10845 10842 10840 10839 10838 10836 10834
10861 10859 10860 10862 10866 10868 10863 10852 10845 10845 10847 10848 10851 10855 10858 10858 10857 10857 10857 10858 10857 10857 10858 10859 10860 10861 10863 10864 10866 10867 10867 10866 10865 10865 10866 10866 10866 10866 10866 10866 10865 10864 10863 10863 10863 10863 10863 10863 10863 10863 10862 10861 10861 10862 10861 10859 10858 10857 10858 10859 10859 10857 10857 10856 10855 10854 10853 10852 10850 10850 10849 10846 10844 10843 10842 10842 10841 10840 10838 10836 10833 10831 10829 10827 10826
10855 10851 10850 10853 10856 10859 10853 10842 10836 10837 10839 10841 10844 10849 10852 10852 10853 10852 10851 10850 10850 10849 10850 10851 10853 10855 10856 10858 10859 10860 10859 10859 10858 10859 10859 10859 10859 10859 10859 10859 10859 10858 10857 10856 10856 10856 10857 10857 10857 10856 10856 10856 10854 10852 10851 10851 10850 10850 10851 10852 10851 10850 10850 10850 10850 10848 10847 10846 10844 10842 10840 10839 10837 10835 10834 10834 10833 10831 10829 10828 10826 10823 10821 10819 10817
10849 10848 10848 10848 10848 10846 10840 10832 10828 10830 10832 10835 10839 10842 10845 10846 10846 10846 10845 10844 10843 10842 10842 10843 10845 10848 10850 10851 10852 10852 10851 10851 10852 10853 10853 10852 10852 10851 10852 10852 10852 10852 10851 10849 10849 10849 10849 10850 10850 10849 10848 10846 10844 10842 10842 10843 10842 10842 10843 10843 10844 10844 10844 10845 10845 10844 10841 10839 10836 10833 10831 10830 10829 10827 10826 10826 10824 10822 10820 10818 10816 10814 10812 10810 10807
10837 10840 10841 10840 10838 10833 10827 10823 10823 10825 10827 10829 10833 10835 10837 10838 10838 10838 10838 10837 10837 10836 10836 10836 10838 10840 10842 10844 10844 10844 10844 10844 10845 10845 10845 10845 10845 10844 10844 10844 10845 10844 10844 10843 10843 10842 10842 10843 10843 10841 10839 10838 10837 10835 10836 10836 10835 10835 10835 10835 10835 10837 10837 10837 10837 10835 10833 10830 10827 10825 10824 10823 10821 10819 10818 10817 10815 10813 10811 10808 10806 10804 10803 10800 10797
10819 10824 10826 10827 10827 10825 10820 10817 10818 10820 10821 10823 10826 10827 10828 10829 10829 10829 10830 10830 10829 10830 10830 10830 10831 10833 10834 10835 10835 10836 10836 10837 10837 10837 10838 10838 10837 10837 10837 10836 10837 10837 10836 10836 10836 10835 10835 10836 10836 10834 10833 10832 10831 10830 10829 10829 10828 10828 10828 10827 10827 10828 10828 10826 10825 10824 10823 10821 10819 10817 10816 10815 10813 10811 10809 10807 10805 10803 10801 10799 10797 10795 10793 10789 10786
10804 10809 10811 10815 10819 10819 10816 10813 10814 10815 10815 10816 10817 10818 10818 10818 10819 10819 10820 10821 10822 10822 10823 10824 10825 10826 10827 10827 10827 10827 10828 10828 10829 10829 10830 10830 10830 10830 10829 10829 10829 10828 10828 10828 10828 10828 10828 10828 10828 10827 10826 10825 10824 10823 10823 10822 10821 10820 10819 10818 10818 10818 10817 10816 10815 10814 10812 10810 10809 10808 10807 10806 10804 10802 10800 10797 10795 10793 10790 10788 10786 10784 10782 10779 10776
10790 10792 10795 10799 10803 10806 10806 10806 10808 10809 10807 10807 10807 10808 10808 10808 10809 10810 10812 10813 10814 10815 10816 10817 10818 10818 10818 10818 10818 10818 10819 10820 10821 10821 10821 10822 10822 10822 10822 10821 10821 10820 10820 10820 10820 10820 10821 10820 10819 10819 10818 10817 10816 10816 10815 10814 10813 10812 10811 10810 10809 10808 10808 10807 10806 10805 10803 10801 10800 10799 10797 10796 10794 10792 10790 10788 10785 10782 10779 10777 10775 10773 10770 10767 10764
10777 10780 10783 10785 10787 10789 10792 10796 10800 10801 10799 10797 10797 10798 10799 10799 10800 10802 10803 10805 10806 10807 10808 10809 10809 10809 10809 10809 10809 10810 10811 10812 10813 10813 10813 10813 10814 10814 10814 10814 10814 10813 10813 10812 10812 10812 10812 10811 10811 10811 10810 10809 10808 10807 10806 10806 10805 10803 10802 10801 10800 10799 10799 10798 10797 10795 10794 10792 10790 10788 10787 10786 10784 10782 10780 10778 10775 10772 10769 10766 10763 10761 10758 10756 10753
10768 10772 10774 10776 10777 10779 10782 10787 10791 10792 10791 10789 10788 10788 10789 10790 10792 10794 10795 10796 10797 10799 10800 10800 10799 10799 10800 10801 10801 10802 10803 10804 10805 10805 10805 10805 10806 10806 10805 10806 10806 10806 10805 10805 10804 10804 10804 10803 10803 10802 10801 10800 10799 10798 10797 10797 10796 10795 10794 10792 10791 10790 10789 10788 10787 10785 10784 10782 10780 10778 10777 10776 10774 10772 10770 10768 10765 10761 10758 10755 10752 10749 10746 10743 10740
10758 10763 10764 10765 10766 10769 10774 10779 10782 10782 10782 10782 10781 10780 10780 10782 10784 10786 10787 10787 10788 10790 10792 10792 10791 10791 10792 10793 10794 10795 10796 10797 10798 10798 10797 10796 10795 10796 10796 10797 10798 10798 10797 10796 10796 10796 10795 10795 10794 10793 10792 10791 10790 10789 10788 10787 10787 10786 10784 10783 10782 10780 10779 10778 10777 10776 10774 10773 10770 10768 10767 10765 10763 10761 10759 10756 10752 10749 10746 10744 10741 10737 10733 10729 10726
10744 10749 10751 10752 10754 10758 10764 10770 10772 10772 10772 10772 10773 10773 10773 10775 10776 10777 10778 10779 10781 10783 10782 10782 10783 10784 10785 10786 10788 10788 10788 10789 10791 10793 10791 10788 10786 10787 10787 10788 10788 10788 10788 10788 10787 10787 10786 10785 10785 10784 10783 10782 10781 10780 10779 10778 10777 10776 10775 10774 10772 10771 10769 10768 10767 10766 10764 10763 10760 10758 10756 10753 10751 10749 10746 10743 10739 10735 10733 10730 10727 10723 10719 10715 10712
10731 10735 10738 10740 10743 10748 10755 10760 10762 10762 10762 10763 10764 10765 10766 10767 10768 10770 10770 10771 10773 10774 10773 10773 10775 10776 10777 10778 10779 10779 10779 10779 10781 10782 10782 10780 10779 10778 10778 10778 10778 10779 10778 10778 10778 10777 10776 10776 10775 10774 10773 10773 10771 10770 10769 10768 10767 10766 10765 10763 10761 10760 10759 10758 10756 10754 10753 10751 10748 10745 10742 10740 10738 10735 10733 10728 10724 10720 10718 10715 10712 10709 10706 10702 10699